Flag for Jamaica Weather past 2 weeks in May Pen, Jamaica

Now
82 °F

Passing clouds.


Feels Like: 88 °F
Forecast: 74 / 87 °F
Wind: 3 mph from Southeast

Location: Kingston / Norman Manley

Current Time: Oct 26, 2014 at 4:00:26 AM

Latest Report: Oct 26, 2014 at 3:00 AM


Visibility: N/A

Pressure: 29.77 "Hg

Humidity: 74%

Dew point: 73 °F

Location of May PenLocation

Historic Weather in May Pen — Graph

°F

May Pen temperature yesterday

Maximum temperature yesterday: 88 °F (at 1:00 PM)
Minimum temperature yesterday: 79 °F (at 6:00 AM)
Average temperature yesterday: 83 °F

Past Weeks' High & Low Weather Summary

 TemperatureHumidityPressure
High91 °F (Oct 12, 1:00 PM)89% (Oct 11, 7:00 AM)29.98 "Hg (Oct 11, 7:00 AM)
Low79 °F (Oct 11, 7:00 AM)59% (Oct 14, 11:00 AM)29.77 "Hg (Oct 26, 3:00 AM)
Average84 °F74%29.88 "Hg
* Reported Oct 11 3:00 AM — Oct 26 3:00 AM, May Pen, Weather by CustomWeather, © 2014

Note: Actual official high and low records may vary slightly from our data, if they occured in-between our weather recording intervals... More about our weather records

Advertising

May Pen weather history for previous 24 hours

 ConditionsComfort  
Time TempWeatherWind HumidityBarometerVisibility
3:00 AM
Oct 26
82 °FPassing clouds.3 mph74%29.77 "HgN/A
2:00 AM82 °FPassing clouds.5 mph79%29.80 "HgN/A
1:00 AM81 °FPassing clouds.5 mph89%29.80 "HgN/A
12:00 AM82 °FPassing clouds.3 mph79%29.83 "HgN/A
11:00 PM
Oct 25
82 °FPassing clouds.5 mph79%29.86 "HgN/A
10:00 PM82 °FPassing clouds.3 mph79%29.86 "HgN/A
9:00 PM82 °FThundershowers. Passing clouds.5 mph79%29.86 "HgN/A
8:00 PM82 °FThundershowers. Passing clouds.5 mph79%29.83 "HgN/A
7:00 PM84 °FThundershowers. Passing clouds.5 mph79%29.83 "HgN/A
6:00 PM84 °FPassing clouds.5 mph74%29.80 "HgN/A
5:00 PMN/A5 mphN/AN/AN/A
4:00 PMN/A6 mphN/AN/AN/A
3:00 PM86 °FPassing clouds.9 mph75%29.80 "HgN/A
2:00 PM88 °FPassing clouds.7 mph75%29.83 "HgN/A
1:00 PM88 °FPassing clouds.8 mph75%29.83 "HgN/A
12:00 PM84 °FPassing clouds.8 mph79%29.86 "HgN/A
11:00 AM86 °FScattered clouds.8 mph75%29.89 "HgN/A
10:00 AM86 °FPassing clouds.8 mph70%29.89 "HgN/A
9:00 AM82 °FPassing clouds.5 mph84%29.89 "HgN/A
8:00 AM79 °FLight rain. Scattered clouds.7 mph89%29.89 "HgN/A
7:00 AM79 °FLight rain. Scattered clouds.8 mph89%29.89 "HgN/A
6:00 AM79 °FPassing clouds.7 mph89%29.86 "HgN/A
5:00 AM81 °FLight rain. Passing clouds.5 mph89%29.83 "HgN/A
4:00 AM81 °FPassing clouds.10 mph89%29.83 "HgN/A
Weather by CustomWeather, © 2014

See weather overviewHow to use our weather pages